DELTA 1 DEB, 42588

Orbit data source: Space-Track

DELTA 1 DEB, 42588 is space debris in SSO originally from a launch on Tue, 06 Nov 1973 UTC launched from the Air Force Western Test Range (AFWTR). Debris objects in space refer to the collection of defunct objects orbiting the Earth. Examples of debris include non-operational satellites, rocket bodies, and fragments generated from explosions, collisions, or faulty payload assembly.

Loading next visibility...
Identifier
42588, 1973-086JC
Orbit
SSO
Country
Flag of USUS
Related business
Manufacturer
Unknown
Mission
Spacecraft
Bus & Motor
Unknown
Mass
Unknown
Launch date (UTC)
1973-11-06 (53 years ago)
Launch vehicle
Unknown
Launch site
Air Force Western Test Range (AFWTR)
Object type
Payload
Rocket body
Debris
Shape & HBR
Unknown shape, 0.1 m
Radar Cross Section
Medium (>0.1 m² and <1 m²)

Expand to show TLE details & history
Last TLE update: 20 hours ago

TLE from 20 hours ago
0 DELTA 1 DEB
1 42588U 73086JC  26263.23482705 -.00000015  00000-0  24679-3 0  9999
2 42588 102.4550 268.1380 0067307 166.8032 257.2229 12.36031736578936
Epoch: 2026-09-20T05:38Z
TLE epoch observation values (Epoch: 2026-09-20T05:38:09.057Z)
Latitude
60.80069°
Longitude
161.30894°
Altitude
1,545.73 km
Speed
7.094 km/s
True Right ascension
16h 19m 54s
True Declination
60° 40' 07"
Sunlit
Object was in daylight at epoch
Visualization orbit readout
Latitude
Unknown
Longitude
Unknown
Altitude
Unknown
Speed
Unknown
Apparent Right ascension
Unknown
Apparent Declination
Unknown
Sunlit
N/A
Visualization observer readout
Local Sidereal Time
18:56:24
Azimuth
Unknown
Elevation
Unknown
Doppler factor
Unknown
Orbital elements
Apogee altitude
1,574.245 km
Perigee altitude
1,467.91 km
Semi-major axis
7,899.214 km
Eccentricity
0.00673
Inclination
102.455°
RAAN
268.138°
Arg. of periapsis
166.8032°
True anomaly
256.47214°
Mean anomaly
257.2229°
Eccentric anomaly
256.84738°
Mean motion
3.09149 °/min
Orbital period
116.45 mins
BSTAR
0.00024679
Loading maneuver chart data...
Computing Atmospheric mass density...
Loading historical data...
Loading historical data...
Loading historical data...
Loading historical data...
Loading historical data...
Loading historical data...
Loading historical data...

Documentation

Showing up to 5 results
|